{"data":{"norad_id":48220,"intl_designator":"2021-031L","name":"ONEWEB-0185","alt_names":[],"object_type":"PAYLOAD","status":"ACTIVE","operator":null,"country":"UK","launch_date":"2021-04-25","launch_site_code":"VOSTO","launch_vehicle":null,"mission":null,"orbit_class":"UNKNOWN","rcs_meters":null,"size_class":null,"mass_kg":null,"dimensions":null,"purposes":["comms"],"wikipedia_slug":null,"has_3d_model":false,"image_url":null,"decayed_at":null,"tle_current":{"epoch":"2026-09-19T23:37:37.157376Z","epoch_age_seconds":70335,"freshness":"FRESH","line1":"1 48220U 21031L   26262.98445784  .00002403  00000+0  64423-2 0  9999","line2":"2 48220  87.8901 270.7952 0001598 103.8913 256.2394 13.14524005260702","mean_motion":13.14524005,"eccentricity":0.0001598,"inclination_deg":87.8901,"raan_deg":270.7952,"arg_perigee_deg":103.8913,"mean_anomaly_deg":256.2394,"bstar":0.0064423,"rev_number":26070,"period_min":109.54535592524,"perigee_km":1204.4968967222,"apogee_km":1206.9206938384,"semimajor_km":7583.8457952803,"source":"CELESTRAK","updated_at":"2026-09-20T09:00:44.594216Z"}}}